Prescott, AZ

11:04 AM MST on February 24, 2017 (GMT -0700)
Love

Weather History for KPRC - May, 2014

Change the Weather History Date:

Wednesday, May 7, 2014

  Actual Average Record
Temperature  
Mean Temperature 48 °F 59 °F  
Max Temperature 61 °F 74 °F 92 °F (1989)
Min Temperature 35 °F 44 °F 30 °F (1995)
Degree Days  
Heating Degree Days 17    
Month to date heating degree days 40  
Since 1 July heating degree days 3713  
Cooling Degree Days 0    
Month to date cooling degree days 1  
Year to date cooling degree days 1  
Moisture  
Dew Point 25 °F    
Average Humidity 40    
Maximum Humidity 58    
Minimum Humidity 26    
Precipitation  
Precipitation T in 0.01 in 0.05 in (1986)
Month to date precipitation T 0.10  
Year to date precipitation 0.97 4.18  
Sea Level Pressure  
Sea Level Pressure 29.75 in    
Wind  
Wind Speed 10 mph (SSW)    
Max Wind Speed 35 mph    
Max Gust Speed 45 mph    
Visibility 10 miles    
Events Rain    
T = Trace of Precipitation, MM = Missing Value Source: NWS Daily Summary

Daily Weather History Graph

Daily Weather History Graph

Search for Another Location

Airport or City:

Trip Planner

Search our weather history database for the weather conditions in past years. The results will help you decide how hot, cold, wet, or windy it might be!

Date:

Astronomy

May. 07, 2014 Rise Set
Actual Time 5:33 AM MST 7:19 PM MST
Civil Twilight 5:06 AM MST 7:46 PM MST
Nautical Twilight 4:33 AM MST 8:19 PM MST
Astronomical Twilight 3:58 AM MST 8:55 PM MST
Moon 12:44 PM MST (5/7) 1:17 AM MST (5/7)
Length of Visible Light 14h 40m
Length of Day
13h 45m
First Quarter, 56% of the Moon is Illuminated
May 7
First Quarter
May 14
Full
May 21
Last Quarter
May 28
New
Jun 5
First Quarter

Hourly Weather History & Observations

Time (MST) Temp. Windchill Dew Point Humidity Pressure Visibility Wind Dir Wind Speed Gust Speed Precip Events Conditions
12:53 AM 39.9 °F 35.1 °F 24.1 °F 53% 29.65 in 10.0 mi South 6.9 mph - N/A   Smoke
1:53 AM 43.0 °F 38.2 °F 21.0 °F 42% 29.64 in 10.0 mi SSW 8.1 mph - N/A   Smoke
2:53 AM 41.0 °F 39.0 °F 21.9 °F 47% 29.64 in 10.0 mi South 3.5 mph - N/A   Smoke
3:53 AM 37.9 °F - 21.0 °F 51% 29.65 in 10.0 mi Calm Calm - N/A   Smoke
4:53 AM 37.0 °F 32.4 °F 21.0 °F 52% 29.66 in 10.0 mi SSW 5.8 mph - N/A   Smoke
5:53 AM 37.9 °F 33.5 °F 21.0 °F 51% 29.68 in 9.0 mi South 5.8 mph - N/A   Smoke
6:53 AM 43.0 °F 38.8 °F 21.9 °F 43% 29.68 in 10.0 mi SSW 6.9 mph - N/A   Clear
7:53 AM 48.9 °F - 23.0 °F 36% 29.69 in 10.0 mi SSW 8.1 mph - N/A   Clear
8:53 AM 51.1 °F - 21.9 °F 32% 29.70 in 10.0 mi SW 10.4 mph - N/A   Mostly Cloudy
10:53 AM 53.1 °F - 23.0 °F 31% 29.76 in 10.0 mi SW 13.8 mph - N/A   Overcast
11:53 AM 54.0 °F - 23.0 °F 30% 29.77 in 10.0 mi SW 16.1 mph 23.0 mph N/A   Mostly Cloudy
12:53 PM 57.9 °F - 25.0 °F 28% 29.78 in 10.0 mi SW 18.4 mph 25.3 mph N/A   Overcast
1:53 PM 57.9 °F - 27.0 °F 31% 29.77 in 10.0 mi SW 18.4 mph 27.6 mph N/A   Mostly Cloudy
2:53 PM 59.0 °F - 27.0 °F 29% 29.77 in 10.0 mi WSW 16.1 mph 23.0 mph N/A   Mostly Cloudy
3:53 PM 59.0 °F - 27.0 °F 29% 29.78 in 10.0 mi SW 17.3 mph 31.1 mph N/A   Mostly Cloudy
4:53 PM 60.1 °F - 27.0 °F 28% 29.78 in 10.0 mi SW 17.3 mph 26.5 mph N/A   Mostly Cloudy
5:53 PM 57.9 °F - 26.1 °F 30% 29.80 in 10.0 mi SW 18.4 mph 24.2 mph N/A   Mostly Cloudy
6:53 PM 55.0 °F - 25.0 °F 31% 29.80 in 10.0 mi SW 13.8 mph - N/A   Scattered Clouds
7:53 PM 51.1 °F - 30.9 °F 46% 29.81 in 8.0 mi South 9.2 mph 21.9 mph 0.00 in Rain Light Rain
8:53 PM 50.0 °F - 32.0 °F 50% 29.82 in 10.0 mi WSW 9.2 mph - 0.00 in   Mostly Cloudy
9:53 PM 50.0 °F - 28.9 °F 44% 29.83 in 10.0 mi Calm Calm - N/A   Mostly Cloudy
10:53 PM 46.9 °F - 32.0 °F 56% 29.84 in 10.0 mi South 5.8 mph - N/A   Mostly Cloudy
11:53 PM 45.0 °F 41.2 °F 30.9 °F 58% 29.85 in 10.0 mi South 6.9 mph - N/A   Clear